{"data":{"norad_id":59838,"epoch":"2026-09-21T00:33:17.308800Z","epoch_age_seconds":129290,"freshness":"FRESH","line1":"1 59838U 24097D   26264.02311700  .00008677  00000+0  32444-3 0  9996","line2":"2 59838  43.0025 250.9462 0001415 263.0784  96.9907 15.27582774131797","mean_motion":15.27582774,"eccentricity":0.0001415,"inclination_deg":43.0025,"raan_deg":250.9462,"arg_perigee_deg":263.0784,"mean_anomaly_deg":96.9907,"bstar":0.00032444,"rev_number":13179,"period_min":94.266577530809,"perigee_km":482.06993304104,"apogee_km":484.01164635552,"semimajor_km":6861.1777896983,"source":"CELESTRAK","updated_at":"2026-09-22T09:00:49.076475Z"}}